Regional Weather Roundup
Issued by NWS Eureka, CA

Home | Current Version | Previous Version | Text Only | Print | Product List | Glossary On
Versions: 1 2 3 4 5 6 7 8 9 10 11 12 13 14 15 16 17 18 19 20 21 22 23 24 25 26 27 28 29 30 31 32 33 34 35 36 37 38 39 40 41 42 43 44 45 46 47 48 49 50
000
ASUS46 KEKA 271413
RWREKA
Eureka Area Weather Roundup
National Weather Service Eureka CA
700 AM PDT MON MAY 27 2019

Note: "fair" indicates few or no clouds below 12,000 feet with no
significant weather and/or obstructions to visibility.

Southwest Oregon...

CITY           SKY/WX    TMP DP  RH WIND       PRES   REMARKS
MEDFORD        CLOUDY    56  50  80 N3        30.00R
KLAMATH FALLS  CLOUDY    50  44  80 NW5       29.97R
NORTH BEND     CLOUDY    54  52  94 SW3       30.07R FOG
ROSEBURG       CLOUDY    55  48  77 N3        30.04R
SEXTON SUMMIT  CLOUDY    43  42  97 NW5       30.01R
BROOKINGS      CLOUDY    50  49  96 CALM      30.07R FOG

Northwest California...

CITY           SKY/WX    TMP DP  RH WIND       PRES   REMARKS
CRESCENT CITY  CLOUDY    51  49  92 NE5       30.07R
MCKINLEYVILLE  CLOUDY    51  50  96 N3        30.06S FOG
EUREKA         NOT AVBL
FORTUNA        CLOUDY    50  50 100 NW6       30.06R VSB<1/4
WEAVERVILLE    CLOUDY    50  43  76 CALM      30.01R
TRINITY CENTER   N/A     46  41  81 W5        30.01R
UKIAH          SUNNY     47  43  86 CALM      30.03R

North & Central California...

CITY           SKY/WX    TMP DP  RH WIND       PRES   REMARKS
YREKA          CLOUDY    52  49  89 CALM      30.00R
MOUNT SHASTA   CLOUDY    48  46  93 CALM      29.98R
REDDING        CLOUDY    56  47  71 S3        30.00R
RED BLUFF      CLOUDY    56  48  74 S3        30.02R
CHICO          CLOUDY    55  50  82 CALM      30.03R
YUBA CITY      CLOUDY    54  49  83 SE10      30.02R
SACRAMENTO     CLOUDY    53  49  86 SE6       30.02R
SANTA ROSA     CLOUDY    48  48 100 CALM      30.03R FOG
NAPA           MOSUNNY   48  46  93 W5        30.03R
TRAVIS AFB     NOT AVBL
SAN FRANCISCO  CLOUDY    53  47  79 W14       30.04R
OAKLAND        CLOUDY    55  48  77 W16       30.05R
STOCKTON       NOT AVBL
SALINAS        CLOUDY    56  49  77 CALM      30.05R
MONTEREY       CLOUDY    54  49  83 W3        30.06R

$$




USA.gov is the U.S. government's official web portal to all federal, state and local government web resources and services.